Regional Weather Roundup
Issued by NWS Little Rock, AR

Home | Current Version | Previous Version | Text Only | Print | Product List | Glossary On
Versions: 1 2 3 4 5 6 7 8 9 10 11 12 13 14 15 16 17 18 19 20 21 22 23 24 25 26 27 28 29 30 31 32 33 34 35 36 37 38 39 40 41 42 43 44 45 46 47 48 49 50
000
ASUS44 KLZK 300605
RWRLZK

WEATHER ROUNDUP FOR ARKANSAS
NATIONAL WEATHER SERVICE LITTLE ROCK AR
1200 AM CST FRI JAN 30 2015

NOTE: "FAIR" INDICATES FEW OR NO CLOUDS BELOW 12,000 FEET WITH NO
SIGNIFICANT WEATHER AND/OR OBSTRUCTIONS TO VISIBILITY.

ARZ001-003-010-029-300700-
NORTHWEST ARKANSAS

CITY           SKY/WX    TMP DP  RH WIND       PRES   REMARKS
FAYETTEVILLE   CLEAR     29  25  85 VRB3      30.49S
6HR MIN TEMP:  25; 6HR MAX TEMP:  40;

FORT SMITH     PTCLDY    39  29  67 CALM      30.50S
6HR MIN TEMP:  38; 6HR MAX TEMP:  46;

HARRISON       CLEAR     32  27  81 NW8       30.47R WCI  25
6HR MIN TEMP:  32; 6HR MAX TEMP:  40;

BENTONVILLE    CLEAR     34  25  69 N7        30.50S WCI  28
6HR MIN TEMP:  34; 6HR MAX TEMP:  43;

ROGERS         CLEAR     32  27  81 NW3       30.50R
6HR MIN TEMP:  32; 6HR MAX TEMP:  41;

SILOAM SPGS    CLEAR     32  21  64 N5        30.51S WCI  27
6HR MIN TEMP:  30; 6HR MAX TEMP:  41;

HIGHFILL       CLEAR     30  24  78 N8        30.49R WCI  22
6HR MIN TEMP:  30; 6HR MAX TEMP:  41;

$$

ARZ004-005-016-300700-
NORTH CENTRAL ARKANSAS

CITY           SKY/WX    TMP DP  RH WIND       PRES   REMARKS
BATESVILLE     CLEAR     37  27  65 W5        30.46R
6HR MIN TEMP:  37; 6HR MAX TEMP:  45;

FLIPPIN        CLEAR     36  25  64 NW5       30.48R
6HR MIN TEMP:  36; 6HR MAX TEMP:  43;

MTN HOME       CLEAR     33  26  75 NW5       30.46R WCI  29
6HR MIN TEMP:  33; 6HR MAX TEMP:  41;

$$

ARZ040-041-300700-
WEST CENTRAL ARKANSAS

CITY           SKY/WX    TMP DP  RH WIND       PRES   REMARKS
MENA           PTCLDY    43  32  65 N9        30.45S
MOUNT IDA      PTCLDY    35  30  82 CALM      30.43S
6HR MIN TEMP:  35; 6HR MAX TEMP:  47;

$$

ARZ009-017-025-026-028-300700-
NORTHEAST ARKANSAS

CITY           SKY/WX    TMP DP  RH WIND       PRES   REMARKS
CORNING        FAIR      37  28  70 NW10      30.44R
JONESBORO      CLEAR     30  28  92 CALM      30.43R
6HR MIN TEMP:  30; 6HR MAX TEMP:  44;

NEWPORT        CLEAR     35  28  76 N8        30.46R WCI  28
6HR MIN TEMP:  35; 6HR MAX TEMP:  45;

WALNUT RIDGE   CLEAR     34  25  69 NW8       30.44R WCI  27
6HR MIN TEMP:  34; 6HR MAX TEMP:  45;

BLYTHEVILLE    CLOUDY    39  33  79 N7        30.42R
6HR MIN TEMP:  39; 6HR MAX TEMP:  44;

$$

ARZ022-023-033-042-044-300700-
CENTRAL ARKANSAS

CITY           SKY/WX    TMP DP  RH WIND       PRES   REMARKS
LITTLE ROCK    PTCLDY    37  28  70 N6        30.47R
6HR MIN TEMP:  37; 6HR MAX TEMP:  48;

N LITTLE ROCK  PTCLDY    37  32  80 NW3       30.47R
6HR MIN TEMP:  37; 6HR MAX TEMP:  45;

JACKSONVILLE   PTCLDY    35  28  74 W2        30.46R
6HR MIN TEMP:  31; 6HR MAX TEMP:  46;

SEARCY         PTCLDY    31  29  92 W3        30.48R
6HR MIN TEMP:  31; 6HR MAX TEMP:  46;

HOT SPRINGS    PTCLDY    42  29  59 N3        30.46S
6HR MIN TEMP:  42; 6HR MAX TEMP:  50;

RUSSELLVILLE   PTCLDY    30  27  88 CALM      30.48R
6HR MIN TEMP:  30; 6HR MAX TEMP:  47;

CLINTON        FAIR      39  28  65 CALM      30.48R
$$

ARZ036-300700-
EAST ARKANSAS

CITY           SKY/WX    TMP DP  RH WIND       PRES   REMARKS
WEST MEMPHIS   PTCLDY    39  31  72 N6        30.42S
6HR MIN TEMP:  39; 6HR MAX TEMP:  46;

$$

ARZ050-053-066-070-073-300700-
SOUTHWEST ARKANSAS

CITY           SKY/WX    TMP DP  RH WIND       PRES   REMARKS
ARKADELPHIA    FAIR      42  32  68 NE3       30.48R
6HR MIN TEMP:  41; 6HR MAX TEMP:  53;

CAMDEN         PTCLDY    41  28  60 MISG      30.47S
TEXARKANA      MOCLDY    44  32  62 NE6       30.46R
6HR MIN TEMP:  44; 6HR MAX TEMP:  56;

EL DORADO      PTCLDY    44  31  60 NE13      30.45R
6HR MIN TEMP:  44; 6HR MAX TEMP:  61;

DE QUEEN       PTCLDY    37  31  78 CALM      30.46R
6HR MIN TEMP:  37; 6HR MAX TEMP:  50;

$$

ARZ056-057-069-300700-
SOUTHEAST ARKANSAS

CITY           SKY/WX    TMP DP  RH WIND       PRES   REMARKS
PINE BLUFF     CLEAR     38  30  73 N6        30.46S
6HR MIN TEMP:  38; 6HR MAX TEMP:  51;

STUTTGART      CLEAR     37  28  70 NW6       30.46S
6HR MIN TEMP:  37; 6HR MAX TEMP:  48;

MONTICELLO     MOCLDY    43  32  65 VRB3      30.44S
6HR MIN TEMP:  43; 6HR MAX TEMP:  59; 6HR PCP: TRACE;


$$




USA.gov is the U.S. government's official web portal to all federal, state and local government web resources and services.